CW8468 Weather Reports


Display with metric or nautical units.
time (UTC)temp
F
wind
direction
speed
MPH
gust
MPH
rain 1hr
in
rain 24hr
in
rain mn
in
humidity
%
barometer
mb
20260510185002 89 168 3.0 7.0 0.00 0.00 0.00 59 1011.9
20260510184516 89 82 4.0 9.0 0.00 0.00 0.00 58 1011.8
20260510184002 89 150 4.0 12.0 0.00 0.00 0.00 56 1011.8
20260510183501 89 119 3.0 8.0 0.00 0.00 0.00 58 1011.8
20260510183025 89 98 3.0 7.0 0.00 0.00 0.00 58 1011.9
20260510182502 89 75 3.0 10.0 0.00 0.00 0.00 61 1012.0
20260510182002 89 150 3.0 10.0 0.00 0.00 0.00 58 1012.1
20260510181516 89 125 3.0 10.0 0.00 0.00 0.00 60 1012.1
20260510181002 87 133 2.0 6.0 0.00 0.00 0.00 61 1012.2
20260510180026 89 125 3.0 9.0 0.00 0.00 0.00 59 1012.4
20260510175500 89 159 2.0 7.0 0.00 0.00 0.00 60 1012.3
20260510175001 89 110 3.0 6.0 0.00 0.00 0.00 61 1012.4
20260510174515 88 145 3.0 6.0 0.00 0.00 0.00 60 1012.4
20260510174002 88 74 3.0 6.0 0.00 0.00 0.00 64 1012.4
20260510173500 89 312 3.0 9.0 0.00 0.00 0.00 61 1012.5
20260510173024 88 149 4.0 9.0 0.00 0.00 0.00 61 1012.7
20260510172500 87 208 4.0 11.0 0.00 0.00 0.00 62 1012.6
20260510172000 87 143 3.0 11.0 0.00 0.00 0.00 61 1012.7
20260510171001 87 106 3.0 10.0 0.00 0.00 0.00 63 1012.9
20260510170500 86 64 3.0 8.0 0.00 0.00 0.00 65 1013.0
20260510165459 85 114 3.0 6.0 0.00 0.00 0.00 66 1013.2
20260510165001 85 88 3.0 8.0 0.00 0.00 0.00 67 1013.2
20260510164515 85 119 3.0 8.0 0.00 0.00 0.00 65 1013.3
20260510164001 85 254 2.0 8.0 0.00 0.00 0.00 67 1013.3
20260510163459 84 179 2.0 7.0 0.00 0.00 0.00 67 1013.3
20260510163025 84 156 2.0 5.0 0.00 0.00 0.00 68 1013.3
20260510162500 84 54 3.0 6.0 0.00 0.00 0.00 68 1013.5
20260510162000 85 48 2.0 8.0 0.00 0.00 0.00 69 1013.6
20260510161515 83 107 2.0 6.0 0.00 0.00 0.00 69 1013.6
20260510161000 84 135 3.0 5.0 0.00 0.00 0.00 70 1013.7
20260510160500 84 114 3.0 7.0 0.00 0.00 0.00 71 1013.7
20260510160028 83 61 3.0 8.0 0.00 0.00 0.00 70 1013.7
20260510155001 83 174 3.0 7.0 0.00 0.00 0.00 71 1013.9
20260510154515 82 106 2.0 7.0 0.00 0.00 0.00 71 1013.8
20260510154001 82 229 2.0 7.0 0.00 0.00 0.00 73 1013.9
20260510153023 82 90 2.0 8.0 0.00 0.00 0.00 72 1013.9
20260510152002 81 106 3.0 8.0 0.00 0.00 0.00 73 1014.0
20260510151515 81 140 3.0 6.0 0.00 0.00 0.00 73 1014.0
20260510151002 80 21 3.0 8.0 0.00 0.00 0.00 74 1014.0
20260510150500 81 343 2.0 6.0 0.00 0.00 0.00 75 1014.1
20260510145501 81 74 2.0 7.0 0.00 0.00 0.00 76 1013.9
20260510144515 81 83 3.0 7.0 0.00 0.00 0.00 75 1013.8
20260510144001 80 33 2.0 7.0 0.00 0.00 0.00 76 1013.8
20260510143027 80 64 2.0 7.0 0.00 0.00 0.00 77 1013.8
20260510142459 80 84 3.0 7.0 0.00 0.00 0.00 76 1013.8
20260510141516 79 100 3.0 8.0 0.00 0.00 0.00 80 1013.8
20260510141002 78 63 3.0 9.0 0.00 0.00 0.00 80 1013.9
20260510140025 79 87 2.0 9.0 0.00 0.00 0.00 81 1013.8
20260510135500 78 22 2.0 9.0 0.00 0.00 0.00 80 1013.8
20260510135001 78 67 2.0 6.0 0.00 0.00 0.00 81 1013.7
20260510134516 78 69 2.0 6.0 0.00 0.00 0.00 82 1013.6
20260510134001 77 62 2.0 6.0 0.00 0.00 0.00 82 1013.5
20260510133022 77 348 1.0 4.0 0.00 0.00 0.00 83 1013.4
20260510132500 77 75 2.0 5.0 0.00 0.00 0.00 83 1013.3
20260510132001 77 50 2.0 5.0 0.00 0.00 0.00 84 1013.3
20260510131514 76 50 2.0 5.0 0.00 0.00 0.00 86 1013.2
20260510131001 76 7 2.0 5.0 0.00 0.00 0.00 86 1013.1
20260510130500 76 69 2.0 5.0 0.00 0.00 0.00 86 1013.0
20260510130025 76 88 2.0 5.0 0.00 0.00 0.00 86 1012.9
20260510125002 75 15 2.0 5.0 0.00 0.00 0.00 86 1012.8
20260510124515 75 15 2.0 4.0 0.00 0.00 0.00 87 1012.7
20260510124000 75 15 1.0 4.0 0.00 0.00 0.00 87 1012.6
20260510123500 75 40 1.0 4.0 0.00 0.00 0.00 87 1012.5
20260510123024 75 54 1.0 4.0 0.00 0.00 0.00 87 1012.4
20260510122001 74 42 1.0 3.0 0.00 0.00 0.00 87 1012.2
20260510121002 74 102 0.0 2.0 0.00 0.00 0.00 87 1012.0
20260510120026 74 77 0.0 2.0 0.00 0.00 0.00 88 1011.9
20260510115459 74 77 0.0 2.0 0.00 0.00 0.00 88 1011.8
20260510115000 74 133 0.0 2.0 0.00 0.00 0.00 88 1011.6
20260510113959 74 204 1.0 3.0 0.00 0.00 0.00 88 1011.2
20260510113458 74 165 1.0 3.0 0.00 0.00 0.00 88 1011.1
20260510113022 74 160 1.0 4.0 0.00 0.00 0.00 88 1011.0
20260510112458 73 89 1.0 4.0 0.00 0.00 0.00 89 1010.9
20260510111959 73 92 0.0 2.0 0.00 0.00 0.00 88 1010.9
20260510110459 73 162 0.0 2.0 0.00 0.00 0.00 88 1010.6
20260510110022 73 185 0.0 2.0 0.00 0.00 0.00 88 1010.5
20260510105458 73 185 0.0 2.0 0.00 0.00 0.00 88 1010.4
20260510105000 73 178 0.0 1.0 0.00 0.00 0.00 88 1010.4
20260510104514 73 179 0.0 2.0 0.00 0.00 0.00 88 1010.4
20260510103459 73 194 0.0 3.0 0.00 0.00 0.00 88 1010.3
20260510103020 73 152 1.0 2.0 0.00 0.00 0.00 88 1010.3
20260510102459 73 163 1.0 2.0 0.00 0.00 0.00 88 1010.3
20260510102000 73 168 0.0 3.0 0.00 0.00 0.00 88 1010.2
20260510101514 73 165 1.0 3.0 0.00 0.00 0.00 88 1010.1
20260510101000 73 158 1.0 3.0 0.00 0.00 0.00 88 1010.2
20260510100021 74 143 2.0 6.0 0.00 0.00 0.00 88 1010.2
20260510095500 74 164 2.0 6.0 0.00 0.00 0.00 88 1010.1
20260510094959 73 194 2.0 8.0 0.00 0.00 0.00 88 1010.0
20260510093459 73 130 3.0 9.0 0.00 0.00 0.00 88 1009.9
20260510093023 73 159 2.0 7.0 0.00 0.00 0.00 88 1009.9
20260510092459 73 235 2.0 7.0 0.00 0.00 0.00 88 1009.9
20260510091515 73 177 2.0 6.0 0.00 0.00 0.00 88 1009.9
20260510091000 73 112 2.0 7.0 0.00 0.00 0.00 88 1009.9
20260510090459 73 171 2.0 7.0 0.00 0.00 0.00 88 1009.9
20260510090028 73 176 1.0 5.0 0.00 0.00 0.00 88 1009.9
20260510085459 73 168 1.0 3.0 0.00 0.00 0.00 88 1010.0
20260510085001 73 196 1.0 3.0 0.00 0.00 0.00 88 1010.0
20260510084513 73 140 1.0 3.0 0.00 0.00 0.00 88 1010.0
20260510084000 73 173 1.0 3.0 0.00 0.00 0.00 88 1010.0
20260510083025 73 142 1.0 3.0 0.00 0.00 0.00 88 1009.9
20260510082459 73 169 1.0 3.0 0.00 0.00 0.00 88 1009.9
20260510081959 73 169 1.0 3.0 0.00 0.00 0.00 88 1010.0
20260510081513 73 165 1.0 3.0 0.00 0.00 0.00 88 1009.9
20260510080020 73 166 0.0 2.0 0.00 0.00 0.00 88 1010.1
20260510075458 73 186 0.0 2.0 0.00 0.00 0.00 88 1010.0
20260510074959 73 163 0.0 2.0 0.00 0.00 0.00 88 1010.1
20260510073458 73 132 0.0 1.0 0.00 0.00 0.00 87 1010.3
20260510073021 73 132 0.0 0.0 0.00 0.00 0.00 87 1010.3
20260510072458 73 132 0.0 1.0 0.00 0.00 0.00 87 1010.3
20260510071959 74 132 0.0 1.0 0.00 0.00 0.00 87 1010.3
20260510071513 74 132 0.0 2.0 0.00 0.00 0.00 86 1010.2
20260510070959 74 132 0.0 2.0 0.00 0.00 0.00 86 1010.2
20260510070458 74 133 0.0 2.0 0.00 0.00 0.00 86 1010.2
20260510070024 74 124 1.0 4.0 0.00 0.00 0.00 86 1010.2
20260510065000 74 145 1.0 4.0 0.00 0.00 0.00 86 1010.2
20260510064514 75 177 1.0 3.0 0.00 0.00 0.00 86 1010.1
20260510064000 75 199 1.0 3.0 0.00 0.00 0.00 86 1010.1
20260510063021 75 177 2.0 4.0 0.00 0.00 0.00 85 1010.2
20260510062459 75 172 2.0 6.0 0.00 0.00 0.00 85 1010.2
20260510062000 75 168 1.0 4.0 0.00 0.00 0.00 85 1010.2
20260510061514 75 167 1.0 5.0 0.00 0.00 0.00 85 1010.3
20260510061001 75 98 1.0 4.0 0.00 0.00 0.00 85 1010.3
20260510060024 75 139 1.0 3.0 0.00 0.00 0.00 84 1010.3
20260510055458 75 162 1.0 3.0 0.00 0.00 0.00 84 1010.3
20260510054959 75 144 1.0 3.0 0.00 0.00 0.00 83 1010.4
20260510054513 75 156 1.0 5.0 0.00 0.00 0.00 83 1010.3
20260510054000 76 182 2.0 5.0 0.00 0.00 0.00 83 1010.4
20260510053458 76 150 2.0 9.0 0.00 0.00 0.00 83 1010.5
20260510053020 76 159 2.0 9.0 0.00 0.00 0.00 83 1010.5
20260510052458 76 50 2.0 7.0 0.00 0.00 0.00 83 1010.5
20260510051959 76 121 2.0 7.0 0.00 0.00 0.00 82 1010.5
20260510051514 76 178 2.0 6.0 0.00 0.00 0.00 82 1010.5
20260510050959 76 140 2.0 7.0 0.00 0.00 0.00 82 1010.5
20260510050458 76 75 3.0 7.0 0.00 0.00 0.00 82 1010.6
20260510050026 76 71 3.0 8.0 0.00 0.00 0.00 82 1010.5
20260510045502 76 40 2.0 8.0 0.00 0.00 0.00 82 1010.5
20260510045004 76 124 2.0 5.0 0.00 0.00 0.00 83 1010.4
20260510044518 76 130 2.0 6.0 0.00 0.00 0.00 83 1010.5
20260510044005 76 29 2.0 6.0 0.00 0.00 0.00 83 1010.6
20260510043503 76 125 1.0 4.0 0.00 0.00 0.00 83 1010.6
20260510043026 76 104 2.0 4.0 0.00 0.00 0.00 83 1010.6
20260510042504 76 102 2.0 5.0 0.00 0.00 0.00 82 1010.6
20260510041518 76 44 2.0 5.0 0.00 0.00 0.00 82 1010.7
20260510041004 77 113 2.0 6.0 0.00 0.00 0.00 81 1010.7
20260510040504 77 108 2.0 5.0 0.00 0.00 0.00 81 1010.6
20260510040029 77 111 2.0 5.0 0.00 0.00 0.00 81 1010.6
20260510035004 77 162 2.0 6.0 0.00 0.00 0.00 81 1010.7
20260510034518 77 85 2.0 5.0 0.00 0.00 0.00 80 1010.7
20260510034003 78 100 3.0 8.0 0.00 0.00 0.00 80 1010.8
20260510033027 78 133 3.0 10.0 0.00 0.00 0.00 79 1010.7
20260510032504 78 69 4.0 12.0 0.00 0.00 0.00 78 1010.7
20260510032004 79 95 4.0 15.0 0.00 0.00 0.00 75 1010.8
20260510031004 79 120 2.0 10.0 0.00 0.00 0.00 69 1010.7
20260510030503 79 162 2.0 6.0 0.00 0.00 0.00 69 1010.7
20260510030025 78 115 2.0 6.0 0.00 0.00 0.00 71 1010.6
20260510025005 78 104 1.0 6.0 0.00 0.00 0.00 71 1010.3
20260510024518 78 118 2.0 6.0 0.00 0.00 0.00 71 1010.1
20260510024004 78 111 1.0 5.0 0.00 0.00 0.00 71 1009.8
20260510023504 77 120 1.0 3.0 0.00 0.00 0.00 71 1009.6
20260510023027 77 87 0.0 3.0 0.00 0.00 0.00 71 1009.5
20260510022503 78 91 0.0 3.0 0.00 0.00 0.00 69 1009.2
20260510021518 78 141 1.0 4.0 0.00 0.00 0.00 69 1008.9
20260510021003 78 140 1.0 4.0 0.00 0.00 0.00 69 1009.0
20260510020024 78 66 1.0 4.0 0.00 0.00 0.00 69 1008.7
20260510015501 79 117 1.0 3.0 0.00 0.00 0.00 68 1008.5
20260510015002 79 85 1.0 2.0 0.00 0.00 0.00 67 1008.2
20260510014517 79 69 1.0 2.0 0.00 0.00 0.00 67 1008.1
20260510014005 79 21 0.0 2.0 0.00 0.00 0.00 65 1008.1
20260510013025 80 19 1.0 4.0 0.00 0.00 0.00 64 1007.9
20260510012501 80 58 2.0 5.0 0.00 0.00 0.00 60 1008.1
20260510012003 80 37 1.0 3.0 0.00 0.00 0.00 56 1008.2
20260510011517 81 69 0.0 2.0 0.00 0.00 0.00 55 1008.1
20260510011003 81 83 1.0 2.0 0.00 0.00 0.00 55 1008.1
20260510010502 81 148 1.0 3.0 0.00 0.00 0.00 54 1008.0
20260510010028 82 210 2.0 7.0 0.00 0.00 0.00 53 1007.8
20260510004517 82 170 2.0 6.0 0.00 0.00 0.00 54 1007.8
20260510004005 82 166 2.0 6.0 0.00 0.00 0.00 54 1007.4
20260510003025 81 188 3.0 7.0 0.00 0.00 0.00 55 1007.7
20260510002502 81 164 4.0 11.0 0.00 0.00 0.00 57 1007.6
20260510002002 81 199 4.0 11.0 0.00 0.00 0.00 55 1007.6
20260510001517 83 210 4.0 11.0 0.00 0.00 0.00 57 1007.6
20260510001002 85 168 3.0 12.0 0.00 0.00 0.00 59 1007.6
20260510000501 85 173 2.0 6.0 0.00 0.00 0.00 62 1007.4
20260510000028 85 143 2.0 7.0 0.00 0.00 0.00 61 1007.5
20260509235501 85 216 2.0 7.0 0.00 0.00 0.00 62 1007.4
20260509235002 85 119 2.0 6.0 0.00 0.00 0.00 64 1007.1
20260509234515 85 146 3.0 6.0 0.00 0.00 0.00 65 1007.1
20260509234001 85 171 3.0 6.0 0.00 0.00 0.00 65 1007.2
20260509233501 85 155 3.0 8.0 0.00 0.00 0.00 63 1007.1
20260509233024 86 154 3.0 8.0 0.00 0.00 0.00 63 1007.1
20260509232501 87 154 2.0 6.0 0.00 0.00 0.00 62 1007.1
20260509232004 88 138 1.0 4.0 0.00 0.00 0.00 62 1007.0
20260509231516 88 2 1.0 3.0 0.00 0.00 0.00 60 1007.0
20260509231002 88 48 1.0 3.0 0.00 0.00 0.00 60 1007.0
20260509230501 88 12 1.0 4.0 0.00 0.00 0.00 60 1007.1
20260509230027 89 21 1.0 4.0 0.00 0.00 0.00 60 1006.9
20260509225502 89 51 1.0 2.0 0.00 0.00 0.00 59 1006.8
20260509225004 89 348 1.0 4.0 0.00 0.00 0.00 59 1006.7
20260509224517 90 334 2.0 4.0 0.00 0.00 0.00 58 1006.7
20260509224002 91 348 2.0 4.0 0.00 0.00 0.00 58 1006.7
20260509223501 91 3 1.0 4.0 0.00 0.00 0.00 57 1006.8
20260509223023 91 299 1.0 4.0 0.00 0.00 0.00 57 1006.8
20260509222004 90 293 2.0 5.0 0.00 0.00 0.00 56 1006.7
20260509221516 91 334 2.0 5.0 0.00 0.00 0.00 57 1006.6
20260509221004 91 297 2.0 5.0 0.00 0.00 0.00 55 1006.7
20260509220503 91 314 1.0 3.0 0.00 0.00 0.00 57 1006.7
20260509220027 90 11 1.0 4.0 0.00 0.00 0.00 58 1006.6
20260509215502 90 26 1.0 4.0 0.00 0.00 0.00 60 1006.7
20260509215002 90 195 2.0 4.0 0.00 0.00 0.00 57 1006.6
20260509214003 90 35 1.0 3.0 0.00 0.00 0.00 55 1006.6
20260509213027 89 33 1.0 3.0 0.00 0.00 0.00 57 1006.8
20260509212502 90 353 2.0 4.0 0.00 0.00 0.00 55 1006.8
20260509211517 90 339 2.0 4.0 0.00 0.00 0.00 57 1006.8
20260509210024 90 23 2.0 4.0 0.00 0.00 0.00 59 1007.0
20260509205501 89 2 2.0 4.0 0.00 0.00 0.00 58 1007.1
20260509205002 90 264 2.0 6.0 0.00 0.00 0.00 58 1007.2
20260509204515 90 358 2.0 6.0 0.00 0.00 0.00 59 1007.2
20260509204002 91 348 3.0 6.0 0.00 0.00 0.00 60 1007.4
20260509203502 90 81 2.0 6.0 0.00 0.00 0.00 62 1007.4
20260509203029 89 23 2.0 3.0 0.00 0.00 0.00 61 1007.5
20260509202501 88 179 1.0 3.0 0.00 0.00 0.00 59 1007.5
20260509202001 89 237 1.0 3.0 0.00 0.00 0.00 61 1007.5
20260509201515 89 247 1.0 5.0 0.00 0.00 0.00 61 1007.6
20260509201002 89 222 2.0 5.0 0.00 0.00 0.00 60 1007.7
20260509200500 89 247 1.0 4.0 0.00 0.00 0.00 61 1007.7
20260509195500 89 267 2.0 4.0 0.00 0.00 0.00 60 1007.9
20260509195003 87 2 2.0 5.0 0.00 0.00 0.00 64 1007.9
20260509194515 88 287 2.0 5.0 0.00 0.00 0.00 61 1007.9
20260509194002 88 293 2.0 6.0 0.00 0.00 0.00 62 1008.0
20260509193501 87 280 1.0 6.0 0.00 0.00 0.00 63 1008.0
20260509193026 87 273 2.0 5.0 0.00 0.00 0.00 62 1008.0
20260509192501 89 142 2.0 5.0 0.00 0.00 0.00 59 1008.1
20260509192001 89 11 2.0 4.0 0.00 0.00 0.00 62 1008.1
20260509191515 87 353 1.0 4.0 0.00 0.00 0.00 63 1008.2
20260509191001 88 358 1.0 4.0 0.00 0.00 0.00 66 1008.2
20260509190026 88 227 2.0 5.0 0.00 0.00 0.00 64 1008.2